Time,TemperatureF,DewpointF,PressureIn,WindDirection,WindDirectionDegrees,WindSpeedMPH,WindSpeedGustMPH,Humidity,HourlyPrecipIn,Conditions,Clouds,dailyrainin,SoftwareType,DateUTC
2013-01-12 00:22:00,43.0,38.0,30.15,NW,317,5.0,-999.0,83,-99.99,,,-99.99,,2013-01-12 08:22:00,
2013-01-12 00:32:00,43.0,38.0,30.15,NW,317,5.0,-999.0,83,-99.99,,,-99.99,,2013-01-12 08:32:00,
2013-01-12 00:42:00,43.0,38.0,30.15,NW,317,5.0,-999.0,83,-99.99,,,-99.99,,2013-01-12 08:42:00,
2013-01-12 00:52:00,43.0,38.0,30.15,NW,317,5.0,-999.0,83,-99.99,,,-99.99,,2013-01-12 08:52:00,
2013-01-12 01:02:00,43.0,38.0,30.15,NW,317,5.0,-999.0,83,-99.99,,,-99.99,,2013-01-12 09:02:00,
2013-01-12 02:22:00,42.0,37.0,30.16,NNE,26,3.0,-999.0,81,-99.99,,,-99.99,,2013-01-12 10:22:00,
2013-01-12 02:32:00,42.0,37.0,30.16,NNE,26,3.0,-999.0,81,-99.99,,,-99.99,,2013-01-12 10:32:00,
2013-01-12 02:43:00,42.0,37.0,30.16,NNE,26,3.0,-999.0,81,-99.99,,,-99.99,,2013-01-12 10:43:00,
2013-01-12 02:52:00,42.0,37.0,30.16,NNE,26,3.0,-999.0,81,-99.99,,,-99.99,,2013-01-12 10:52:00,
2013-01-12 03:02:00,42.0,37.0,30.16,NNE,26,3.0,-999.0,81,-99.99,,,-99.99,,2013-01-12 11:02:00,
2013-01-12 04:22:00,41.0,35.0,30.17,NNW,337,2.0,-999.0,79,-99.99,,,-99.99,,2013-01-12 12:22:00,
2013-01-12 04:33:00,41.0,35.0,30.17,NNW,337,2.0,-999.0,79,-99.99,,,-99.99,,2013-01-12 12:33:00,
2013-01-12 04:43:00,41.0,35.0,30.17,NNW,337,2.0,-999.0,79,-99.99,,,-99.99,,2013-01-12 12:43:00,
2013-01-12 04:52:00,41.0,35.0,30.17,NNW,337,2.0,-999.0,79,-99.99,,,-99.99,,2013-01-12 12:52:00,
2013-01-12 05:02:00,41.0,35.0,30.17,NNW,337,2.0,-999.0,79,-99.99,,,-99.99,,2013-01-12 13:02:00,
2013-01-12 06:22:00,41.0,32.0,30.19,NNW,346,0.0,-999.0,71,-99.99,,,-99.99,,2013-01-12 14:22:00,
2013-01-12 06:33:00,41.0,32.0,30.19,NNW,346,0.0,-999.0,71,-99.99,,,-99.99,,2013-01-12 14:33:00,
2013-01-12 06:43:00,41.0,32.0,30.19,NNW,346,0.0,-999.0,71,-99.99,,,-99.99,,2013-01-12 14:43:00,
2013-01-12 06:53:00,41.0,32.0,30.19,NNW,346,0.0,-999.0,71,-99.99,,,-99.99,,2013-01-12 14:53:00,
2013-01-12 07:02:00,41.0,32.0,30.19,NNW,346,0.0,-999.0,71,-99.99,,,-99.99,,2013-01-12 15:02:00,
2013-01-12 08:23:00,41.0,36.0,30.22,North,355,1.0,-999.0,82,-99.99,,,-99.99,,2013-01-12 16:23:00,
2013-01-12 08:33:00,41.0,36.0,30.22,North,355,1.0,-999.0,82,-99.99,,,-99.99,,2013-01-12 16:33:00,
2013-01-12 08:43:00,41.0,36.0,30.22,North,355,1.0,-999.0,82,-99.99,,,-99.99,,2013-01-12 16:43:00,
2013-01-12 08:53:00,41.0,36.0,30.22,North,355,1.0,-999.0,82,-99.99,,,-99.99,,2013-01-12 16:53:00,
2013-01-12 09:02:00,41.0,36.0,30.22,North,355,1.0,-999.0,82,-99.99,,,-99.99,,2013-01-12 17:02:00,
2013-01-12 10:23:00,44.0,34.0,30.22,NE,55,6.0,-999.0,68,-99.99,,,-99.99,,2013-01-12 18:23:00,
2013-01-12 10:33:00,44.0,34.0,30.22,NE,55,6.0,-999.0,68,-99.99,,,-99.99,,2013-01-12 18:33:00,
2013-01-12 10:43:00,44.0,34.0,30.22,NE,55,6.0,-999.0,68,-99.99,,,-99.99,,2013-01-12 18:43:00,
2013-01-12 10:52:00,44.0,34.0,30.22,NE,55,6.0,-999.0,68,-99.99,,,-99.99,,2013-01-12 18:52:00,
2013-01-12 11:02:00,44.0,34.0,30.22,NE,55,6.0,-999.0,68,-99.99,,,-99.99,,2013-01-12 19:02:00,
2013-01-12 12:13:00,46.0,29.0,30.18,ENE,72,3.0,-999.0,52,-99.99,,,-99.99,,2013-01-12 20:13:00,
2013-01-12 12:22:00,46.0,29.0,30.18,ENE,72,3.0,-999.0,52,-99.99,,,-99.99,,2013-01-12 20:22:00,
2013-01-12 12:33:00,46.0,29.0,30.18,ENE,72,3.0,-999.0,52,-99.99,,,-99.99,,2013-01-12 20:33:00,
2013-01-12 12:43:00,46.0,29.0,30.18,ENE,72,3.0,-999.0,52,-99.99,,,-99.99,,2013-01-12 20:43:00,
2013-01-12 12:53:00,46.0,29.0,30.18,ENE,72,3.0,-999.0,52,-99.99,,,-99.99,,2013-01-12 20:53:00,
2013-01-12 13:02:00,46.0,29.0,30.18,ENE,72,3.0,-999.0,52,-99.99,,,-99.99,,2013-01-12 21:02:00,
2013-01-12 14:23:00,47.0,26.0,30.15,NNE,32,1.0,-999.0,43,-99.99,,,-99.99,,2013-01-12 22:23:00,
2013-01-12 14:33:00,47.0,26.0,30.15,NNE,32,1.0,-999.0,43,-99.99,,,-99.99,,2013-01-12 22:33:00,
2013-01-12 14:43:00,47.0,26.0,30.15,NNE,32,1.0,-999.0,43,-99.99,,,-99.99,,2013-01-12 22:43:00,
2013-01-12 14:52:00,47.0,26.0,30.15,NNE,32,1.0,-999.0,43,-99.99,,,-99.99,,2013-01-12 22:52:00,
2013-01-12 15:02:00,47.0,26.0,30.15,NNE,32,1.0,-999.0,43,-99.99,,,-99.99,,2013-01-12 23:02:00,
2013-01-12 16:23:00,48.0,30.0,30.12,WSW,238,1.0,-999.0,50,-99.99,,,-99.99,,2013-01-13 00:23:00,
2013-01-12 16:33:00,48.0,30.0,30.12,WSW,238,1.0,-999.0,50,-99.99,,,-99.99,,2013-01-13 00:33:00,
2013-01-12 16:43:00,48.0,30.0,30.12,WSW,238,1.0,-999.0,50,-99.99,,,-99.99,,2013-01-13 00:43:00,
2013-01-12 16:53:00,48.0,30.0,30.12,WSW,238,1.0,-999.0,50,-99.99,,,-99.99,,2013-01-13 00:53:00,
2013-01-12 17:02:00,48.0,30.0,30.12,WSW,238,1.0,-999.0,50,-99.99,,,-99.99,,2013-01-13 01:02:00,
2013-01-12 18:23:00,45.0,32.0,30.14,West,272,3.0,-999.0,61,-99.99,,,-99.99,,2013-01-13 02:23:00,
2013-01-12 18:33:00,45.0,32.0,30.14,West,272,3.0,-999.0,61,-99.99,,,-99.99,,2013-01-13 02:33:00,
2013-01-12 18:43:00,45.0,32.0,30.14,West,272,3.0,-999.0,61,-99.99,,,-99.99,,2013-01-13 02:43:00,
2013-01-12 18:53:00,45.0,32.0,30.14,West,272,3.0,-999.0,61,-99.99,,,-99.99,,2013-01-13 02:53:00,
2013-01-12 19:02:00,45.0,32.0,30.14,West,272,3.0,-999.0,61,-99.99,,,-99.99,,2013-01-13 03:02:00,
2013-01-12 20:22:00,45.0,34.0,30.14,West,259,0.0,-999.0,65,-99.99,,,-99.99,,2013-01-13 04:22:00,
2013-01-12 20:33:00,45.0,34.0,30.14,West,259,0.0,-999.0,65,-99.99,,,-99.99,,2013-01-13 04:33:00,
2013-01-12 20:43:00,45.0,34.0,30.14,West,259,0.0,-999.0,65,-99.99,,,-99.99,,2013-01-13 04:43:00,
2013-01-12 20:52:00,45.0,34.0,30.14,West,259,0.0,-999.0,65,-99.99,,,-99.99,,2013-01-13 04:52:00,
2013-01-12 21:03:00,45.0,34.0,30.14,West,259,0.0,-999.0,65,-99.99,,,-99.99,,2013-01-13 05:03:00,
2013-01-12 22:22:00,43.0,33.0,30.14,West,267,1.0,-999.0,67,-99.99,,,-99.99,,2013-01-13 06:22:00,
2013-01-12 22:32:00,43.0,33.0,30.14,West,267,1.0,-999.0,67,-99.99,,,-99.99,,2013-01-13 06:32:00,
2013-01-12 22:42:00,43.0,33.0,30.14,West,267,1.0,-999.0,67,-99.99,,,-99.99,,2013-01-13 06:42:00,
2013-01-12 22:52:00,43.0,33.0,30.14,West,267,1.0,-999.0,67,-99.99,,,-99.99,,2013-01-13 06:52:00,
2013-01-12 23:02:00,43.0,33.0,30.14,West,267,1.0,-999.0,67,-99.99,,,-99.99,,2013-01-13 07:02:00,